GFSCGP_850_temp_288.txt.gz
Temp
12 10 10 11 11 14 12 13 14 14 13 14 13 12 9 9 9 8 9 10 13 15 16 17 18 18 17 16 16 15 15 15 14 13 13 13 13 13 12 12 12 11 11 11
10 9 11 11 12 13 13 13 14 13 13 13 13 13 10 8 7 7 7 8 10 12 14 16 18 18 18 18 17 16 15 15 14 14 13 13 13 13 12 11 11 11 11 11
10 13 10 11 11 12 12 12 13 14 12 11 13 12 11 9 8 8 7 7 9 10 12 15 16 18 18 17 17 16 16 15 14 14 13 13 12 12 12 12 11 11 10 10
12 12 10 11 11 11 12 11 13 12 11 11 11 12 11 9 8 6 6 7 7 9 10 12 13 14 15 16 16 16 15 14 14 13 13 13 13 12 12 11 11 10 10 10
11 10 10 11 12 12 12 11 11 10 8 9 11 8 11 9 9 7 5 5 6 7 8 9 10 12 12 14 14 14 14 13 13 12 12 12 11 11 11 11 10 10 10 9
11 11 12 11 9 12 8 9 7 5 6 7 10 10 11 8 9 5 4 5 5 6 7 8 9 10 11 12 12 13 13 13 12 12 11 11 11 11 11 10 10 10 9 9
11 11 11 11 9 10 10 10 6 7 5 9 7 9 10 8 7 5 3 4 5 6 7 8 9 9 9 10 11 11 11 12 11 11 10 10 11 11 10 10 10 9 8 8
8 9 9 10 11 10 9 10 7 9 7 9 7 8 10 5 5 5 4 4 4 5 6 7 7 8 8 9 9 10 10 11 10 10 10 10 10 10 10 9 8 7 7 7
9 11 9 10 10 11 10 10 9 6 6 5 7 7 6 4 3 3 3 4 4 4 5 5 6 7 7 8 8 9 9 9 9 9 9 9 9 9 9 9 9 9 8 8
10 11 8 9 10 10 10 9 9 7 8 9 8 7 9 5 3 3 2 2 3 3 4 5 5 6 6 6 7 7 8 8 8 8 9 9 9 9 8 8 8 8 8 8
9 10 7 9 9 8 9 9 7 8 6 7 7 9 6 6 5 3 2 3 3 3 4 4 5 5 6 6 7 7 8 8 8 8 8 8 8 8 7 8 8 8 8 8
10 7 7 7 8 8 9 8 8 8 8 4 4 7 3 2 5 4 3 3 3 3 3 4 4 5 6 6 6 7 7 7 7 7 7 8 7 7 8 8 7 7 7 7
9 8 5 7 8 7 8 8 8 7 7 5 5 8 2 3 3 3 2 3 3 3 3 3 4 4 5 5 6 6 6 6 6 6 6 6 6 6 6 6 6 6 6 6
11 8 10 12 11 7 7 7 8 11 6 7 7 7 2 1 2 2 2 3 2 3 3 3 3 4 4 4 4 4 4 4 4 4 5 5 5 5 5 5 5 5 5 5
9 9 9 8 8 8 8 8 9 10 11 10 9 7 4 2 2 2 3 2 2 2 2 2 2 2 2 3 3 3 3 3 4 4 5 5 4 4 4 4 5 5 5 4
6 5 6 6 8 9 9 8 9 10 8 9 6 7 5 4 3 2 1 1 1 1 1 1 2 2 2 2 2 3 3 4 3 3 3 3 3 3 3 3 3 3 3 3
5 4 5 5 5 6 8 6 6 8 7 9 7 7 3 2 2 2 0 1 1 1 1 1 1 1 2 2 2 2 2 2 2 2 2 2 2 2 3 3 3 3 2 2
4 4 2 2 3 5 6 2 4 6 3 4 4 3 4 4 3 1 2 2 1 1 1 1 1 1 1 0 0 0 0 1 1 1 1 1 2 2 2 2 2 2 2 2
4 3 2 5 4 5 2 2 4 6 6 2 2 1 1 1 1 -0 2 2 2 1 0 0 -0 -0 -0 -0 0 0 0 1 1 1 1 1 1 1 1 1 2 2 1 2
3 3 6 3 6 5 4 2 3 5 6 1 1 1 1 3 2 -1 0 1 0 0 -0 -0 -1 -1 -0 0 0 0 1 1 1 0 0 -0 -0 -0 0 0 1 1 1 1
3 3 6 5 5 3 0 2 3 6 7 1 1 1 2 0 1 -1 0 -0 0 -0 -1 -0 -0 -0 -0 -0 -0 -0 -0 -0 -1 -1 -1 -1 -1 -1 -1 -1 -0 0 1 1
5 5 6 4 4 6 1 2 4 1 1 1 1 1 1 -0 -0 -0 -0 -0 -1 -0 -0 -1 -1 -1 -1 -1 -1 -1 -2 -2 -2 -2 -2 -2 -2 -2 -1 -1 -1 -1 -0 -0
2 2 3 3 2 0 1 2 2 1 0 0 2 2 2 1 -0 -0 -1 -1 -1 -1 -1 -2 -1 -1 -2 -2 -3 -3 -4 -3 -3 -3 -3 -3 -3 -3 -2 -2 -1 -1 -1 -2
-1 0 -0 1 -2 -3 -1 0 2 2 2 2 2 2 2 0 -1 -1 -1 -1 -1 -2 -2 -2 -3 -3 -4 -4 -4 -5 -5 -4 -4 -4 -4 -4 -4 -3 -3 -3 -3 -3 -2 -5
-3 -1 -1 -3 -4 -4 -4 -1 0 1 2 2 1 1 1 0 -1 -1 -2 -2 -3 -3 -4 -4 -4 -5 -5 -5 -5 -5 -5 -5 -5 -5 -5 -5 -5 -5 -4 -4 -3 -3 -3 -6
-7 -5 -1 -1 -2 -2 -5 -4 -2 1 -0 -0 0 -1 -2 -1 -2 -3 -3 -4 -4 -5 -5 -5 -5 -5 -5 -5 -5 -6 -6 -6 -6 -6 -6 -6 -6 -5 -5 -5 -4 -3 -3 -4

GFSCGP_850_temp_294.txt.gz
Temp
13 15 16 17 18 19 20 20 20 17 15 17 18 19 17 13 13 14 13 13 12 12 14 15 15 16 16 15 15 15 14 14 13 13 13 13 12 12 12 12 11 11 11 11
13 15 17 18 16 17 17 19 18 15 14 16 16 18 16 13 11 10 10 11 10 10 11 13 15 15 16 15 15 15 15 14 14 13 13 13 12 12 12 11 11 11 10 10
15 16 13 15 15 16 17 19 17 18 14 15 16 19 15 12 10 9 8 7 7 7 10 12 13 14 15 15 15 14 14 14 13 13 13 13 12 12 12 11 11 10 10 10
16 11 13 15 15 17 17 16 17 15 17 18 15 20 18 15 13 11 9 8 7 6 8 10 12 13 14 15 15 14 13 14 13 13 13 13 12 11 11 11 10 10 10 9
14 11 13 14 16 16 17 15 15 15 15 16 16 17 21 13 14 13 10 8 6 6 7 9 11 11 12 13 14 14 13 13 13 13 12 12 11 11 11 11 11 10 11 10
13 11 14 15 12 16 12 14 14 13 15 15 19 18 21 17 17 15 9 7 6 5 6 7 8 8 9 11 12 13 13 13 12 12 12 11 11 11 11 11 10 11 11 10
12 12 11 12 12 12 14 17 13 13 13 15 11 15 20 15 13 13 9 7 5 5 5 5 7 8 8 9 9 9 10 11 10 11 11 11 11 11 11 10 10 10 10 10
13 11 11 12 14 13 15 18 15 14 13 16 10 15 19 9 7 9 7 6 4 4 4 5 6 7 8 8 8 9 9 10 10 10 10 10 10 10 10 10 10 10 10 9
14 13 10 10 11 15 13 13 15 13 10 14 15 14 11 7 6 6 5 5 4 3 3 5 6 7 7 7 8 8 8 9 8 9 9 9 9 9 9 9 9 9 9 8
15 13 10 10 11 11 13 14 14 14 13 15 13 14 18 7 7 6 5 5 3 2 2 4 5 6 6 7 7 7 8 8 8 8 8 8 8 8 8 8 8 8 8 8
14 15 10 10 11 13 12 13 14 16 15 16 18 17 15 12 8 6 5 4 3 2 2 3 4 5 6 6 6 6 7 7 7 7 7 7 8 8 8 8 8 8 8 8
14 12 11 12 9 9 14 15 16 16 13 13 15 19 9 8 9 7 5 3 3 2 2 2 3 4 4 5 5 5 6 6 6 7 7 7 7 7 7 7 7 7 7 7
12 12 10 9 10 9 10 11 15 14 14 14 15 18 6 6 7 6 5 3 2 2 1 1 2 3 4 4 5 5 6 6 6 6 6 6 6 6 6 6 6 6 6 6
13 13 15 15 15 13 11 11 11 14 15 17 16 18 9 7 7 6 5 3 2 1 1 1 1 2 3 4 4 4 5 5 5 5 5 6 6 6 5 5 5 5 5 5
13 13 15 17 14 12 12 12 11 13 15 16 17 15 16 9 8 6 5 3 2 1 0 -0 -0 1 3 3 3 3 4 4 4 4 5 5 5 5 4 4 4 4 4 4
9 8 11 10 10 11 12 12 12 14 15 16 16 14 8 10 6 5 4 3 2 1 0 -0 0 2 2 3 3 3 3 3 3 4 4 4 4 3 3 3 4 4 4 4
6 6 8 11 9 9 10 11 12 13 14 15 13 11 7 6 5 5 3 2 2 1 -0 -1 1 2 2 2 2 2 3 3 3 3 3 3 3 3 3 3 3 3 3 3
6 7 6 6 7 9 13 6 10 12 11 12 10 9 8 7 5 4 3 3 2 0 -0 1 1 1 2 2 2 2 2 2 2 2 2 2 2 2 2 2 2 2 2 2
8 5 5 7 9 9 9 6 8 9 10 9 11 6 5 4 3 3 3 2 1 -0 0 1 1 1 1 1 1 1 1 1 1 1 1 1 1 1 1 1 1 1 1 1
5 5 7 5 10 9 14 7 6 9 12 8 7 4 3 3 6 4 1 0 -0 1 1 1 1 1 1 0 0 0 0 0 0 0 0 0 0 -0 -0 -0 -0 -0 -0 -0
6 7 8 8 9 8 5 4 4 10 12 6 6 4 3 6 6 2 -0 -1 1 1 0 0 -0 -0 -0 -0 -0 -0 -1 -0 -0 -0 -1 -1 -1 -1 -1 -1 -1 -1 -1 -1
8 7 8 7 8 9 3 3 8 5 2 4 4 3 3 -0 -1 -2 -1 -1 -0 -0 -1 -1 -1 -1 -1 -1 -1 -1 -1 -1 -1 -2 -2 -2 -2 -2 -2 -2 -2 -2 -2 -2
7 7 8 8 9 1 -1 1 2 2 2 2 1 0 1 -2 -3 -3 -2 -0 -1 -1 -1 -2 -1 -1 -1 -1 -2 -2 -2 -2 -3 -3 -3 -3 -3 -3 -3 -3 -3 -3 -3 -4
1 1 3 2 -1 -1 -2 -1 0 1 0 0 1 1 0 -3 -3 -3 -2 -2 -2 -2 -2 -3 -2 -2 -2 -3 -3 -3 -3 -3 -3 -3 -3 -3 -3 -3 -4 -4 -4 -5 -4 -5
-2 -1 1 -2 -3 -2 -3 -2 -1 -1 -0 -1 -1 -2 -3 -3 -3 -1 -2 -2 -2 -3 -3 -3 -3 -3 -3 -4 -4 -4 -4 -4 -4 -4 -4 -4 -4 -5 -5 -5 -5 -5 -5 -6
-7 -5 1 2 -1 -0 -4 -4 -3 -2 -2 -2 -3 -3 -2 -0 -2 -2 -3 -4 -4 -4 -4 -4 -4 -4 -5 -5 -5 -5 -5 -5 -5 -5 -5 -6 -6 -6 -6 -6 -6 -6 -6 -6

GFSCGP_850_temp_297.txt.gz
Temp
15 15 16 18 20 22 22 21 22 22 19 19 20 21 19 17 17 18 18 18 17 16 13 13 14 13 13 14 14 13 12 12 12 11 11 11 11 11 10 10 10 10 10 11
15 15 17 19 20 20 21 21 22 18 17 18 20 20 21 18 18 17 17 17 16 14 12 11 12 14 14 13 13 13 13 12 12 11 11 11 11 11 10 10 10 11 10 10
15 17 18 18 18 18 19 20 21 20 16 18 20 19 20 17 15 13 13 13 12 12 12 11 11 13 14 13 12 13 13 12 12 11 11 11 11 11 11 11 11 11 10 10
15 18 17 17 17 18 18 20 21 17 18 19 19 20 21 19 16 14 13 12 12 10 9 9 10 11 12 13 12 12 12 12 12 11 11 12 12 11 11 11 11 10 10 10
15 14 15 16 17 18 19 18 18 18 19 19 18 18 23 22 18 16 15 13 11 10 9 8 9 10 12 13 12 11 11 11 11 11 11 11 11 11 11 11 11 11 11 11
16 13 16 17 18 18 16 17 17 17 17 16 20 19 22 18 19 20 16 12 10 9 7 6 7 8 10 12 12 10 11 11 11 11 11 12 11 11 11 11 11 11 10 10
15 13 13 14 15 16 17 17 14 15 13 16 16 18 21 18 16 19 15 12 9 8 8 6 6 7 7 7 8 9 10 11 11 11 11 11 11 11 11 11 10 10 10 10
13 12 13 14 16 15 16 18 15 14 15 17 13 15 20 15 12 14 13 10 8 8 7 6 6 7 7 7 8 9 9 10 10 10 10 10 10 11 10 10 10 10 10 9
15 14 12 14 14 16 15 16 19 16 15 18 17 18 12 11 11 11 10 9 8 7 6 5 4 6 7 7 7 8 8 9 9 9 9 10 10 10 10 9 9 9 9 9
17 15 13 12 13 14 15 17 15 15 13 16 18 18 18 11 11 10 9 8 7 6 5 4 4 4 5 6 7 7 8 8 8 8 9 9 9 8 8 9 9 9 9 9
17 17 11 12 13 15 13 15 16 18 18 16 18 18 19 17 12 10 9 8 6 5 4 4 3 3 4 5 6 6 6 7 7 7 7 8 8 8 8 8 8 8 8 8
16 17 11 12 12 12 16 17 17 16 16 16 18 19 12 12 13 10 9 7 6 5 4 3 3 3 3 4 4 5 5 6 6 7 7 7 7 7 7 7 7 7 7 7
16 15 12 12 12 12 12 16 17 18 19 17 16 19 10 10 12 9 8 6 5 5 4 3 3 2 2 2 3 4 5 6 6 6 6 6 6 6 6 6 6 6 7 7
15 16 15 13 15 15 12 14 14 17 16 17 17 19 11 10 10 9 7 6 5 4 3 2 2 2 1 2 3 4 5 5 5 5 5 6 6 6 6 6 6 6 6 6
15 14 16 17 18 16 14 14 14 15 16 16 19 19 18 12 10 9 7 6 5 4 3 2 2 1 1 2 3 4 4 4 4 5 5 5 5 5 5 5 5 5 5 5
14 8 13 14 17 15 14 15 14 14 16 16 18 19 17 16 11 9 7 5 4 3 2 2 1 1 1 2 3 3 4 4 4 4 4 4 4 4 4 5 5 4 4 3
7 7 8 11 14 11 9 14 15 14 15 17 15 16 13 12 10 9 7 5 4 3 2 2 1 0 0 2 3 3 3 3 3 3 3 3 4 4 4 3 3 3 3 2
6 8 6 8 8 9 14 14 15 15 15 16 16 15 12 12 9 9 7 5 4 3 2 1 0 -0 1 2 2 2 2 2 2 3 3 3 3 3 2 2 2 2 2 2
9 6 6 9 9 12 12 8 11 12 13 13 15 13 11 9 7 7 6 5 4 2 1 0 -0 0 2 2 2 2 2 2 2 2 2 2 2 1 1 1 1 1 1 1
7 8 7 7 9 10 14 11 12 13 12 13 13 10 7 6 7 7 5 4 3 1 0 -1 -0 1 1 1 1 1 1 1 1 1 1 1 1 1 1 1 0 0 0 -0
6 6 6 7 8 8 9 8 10 10 13 12 12 8 6 8 9 7 4 3 1 -0 -1 -0 0 1 1 1 0 0 0 0 0 0 0 -0 -0 -0 -0 -0 -1 -1 -1 -1
8 7 7 7 7 9 6 5 10 7 6 8 8 6 6 4 4 3 2 0 -1 -2 -2 -1 -0 -0 -1 -1 -0 -0 -0 -1 -1 -0 -0 -1 -1 -1 -1 -2 -2 -2 -2 -2
8 8 9 10 9 3 2 2 2 3 4 5 5 5 2 2 1 0 -1 -3 -3 -3 -2 -1 -0 -1 -1 -1 -2 -1 -1 -1 -1 -1 -2 -2 -2 -2 -2 -2 -2 -2 -3 -4
2 1 5 5 1 1 0 1 2 2 2 2 2 1 1 -1 -2 -3 -3 -4 -5 -4 -2 -2 -2 -2 -3 -3 -3 -2 -2 -2 -2 -2 -3 -3 -3 -3 -3 -3 -3 -4 -4 -4
-1 0 3 -1 -2 -1 -1 -0 0 0 -0 -1 0 -0 -1 -2 -4 -5 -5 -4 -3 -3 -3 -3 -2 -3 -4 -3 -3 -3 -3 -3 -3 -4 -4 -4 -4 -4 -4 -4 -5 -5 -5 -6
-6 -5 2 3 1 -1 -2 -2 -1 -1 -2 -2 -2 -3 -4 -4 -5 -4 -3 -3 -3 -2 -3 -3 -4 -4 -3 -3 -3 -4 -4 -4 -4 -4 -4 -4 -4 -5 -5 -5 -6 -6 -6 -6

GFSCGP_850_temp_300.txt.gz
Temp
13 12 13 14 15 17 18 17 17 18 17 16 15 16 15 17 18 19 19 18 18 17 16 16 16 15 15 15 14 13 13 12 12 12 12 11 11 11 11 11 11 11 10 11
12 12 14 16 16 16 17 17 17 15 17 16 16 16 16 15 16 18 19 18 17 16 16 15 15 15 15 14 14 14 13 12 12 12 12 11 11 11 11 11 11 11 11 11
12 14 15 16 15 16 17 16 17 16 16 16 17 16 17 15 17 16 17 17 16 15 14 13 14 14 14 14 14 14 13 12 12 12 11 11 11 11 10 11 11 11 11 11
13 15 15 15 15 17 16 18 18 14 14 13 15 13 16 14 14 13 13 14 14 13 13 11 11 11 13 13 13 13 13 12 12 12 12 11 12 11 11 11 11 11 10 10
13 14 14 15 16 16 16 18 16 15 14 16 16 12 19 17 13 12 12 13 12 11 11 10 10 11 12 13 12 12 13 12 12 12 11 11 11 11 10 10 11 10 11 11
14 14 15 16 16 16 17 15 16 16 13 10 15 14 15 16 16 15 13 13 11 10 9 9 9 10 11 12 12 12 12 12 12 12 11 11 11 11 11 11 11 11 11 10
13 13 12 14 14 15 15 14 10 10 9 11 15 14 16 16 15 15 13 12 10 9 8 8 7 8 9 11 11 10 11 11 11 11 11 11 11 11 12 11 11 10 10 11
11 9 11 13 15 14 14 15 10 10 10 12 13 12 15 11 12 15 13 11 9 8 7 6 6 6 6 7 8 9 10 10 10 10 10 10 11 11 10 10 10 10 10 9
12 12 12 13 15 14 12 13 16 14 15 12 11 14 11 10 11 11 10 9 8 7 6 6 6 6 6 7 7 7 9 9 10 10 10 10 10 10 10 10 10 9 9 9
14 10 12 11 13 13 14 15 14 12 11 13 13 14 13 9 9 9 8 8 8 6 5 5 6 6 6 7 7 7 8 8 9 9 9 9 9 9 9 9 8 8 9 9
14 13 10 10 10 13 12 13 14 13 11 10 12 11 14 13 10 9 8 8 7 5 4 4 4 5 6 6 7 7 7 8 8 8 8 8 8 8 8 8 8 8 9 8
14 14 9 10 11 13 13 13 14 14 12 12 11 15 10 10 11 9 8 8 6 5 4 3 3 4 4 5 5 6 6 6 6 6 6 7 7 7 8 8 8 8 8 8
14 11 9 10 11 11 12 13 15 15 14 13 12 13 9 10 8 9 8 6 5 4 4 3 3 3 4 4 4 4 5 5 5 6 6 7 7 7 7 7 7 7 7 7
14 12 12 10 12 11 11 12 13 14 11 13 14 15 8 8 8 7 7 6 5 4 3 3 3 3 3 3 4 4 4 5 6 6 6 7 7 7 7 7 7 6 6 6
13 12 12 13 14 13 12 12 13 12 14 13 15 14 14 8 8 8 6 5 5 4 3 3 2 2 2 2 3 4 4 5 5 6 6 6 6 6 5 5 5 5 5 5
12 7 10 10 13 13 12 12 13 13 14 15 14 14 14 10 9 7 6 5 5 3 3 3 2 2 2 2 3 3 4 4 5 5 5 5 5 5 5 5 5 4 4 4
8 6 5 9 11 9 7 12 12 13 13 14 12 11 10 8 8 7 6 6 5 3 3 2 2 2 1 2 3 4 4 4 4 4 4 4 4 4 4 4 4 3 4 4
5 7 5 4 5 5 11 11 13 13 13 13 13 12 10 10 9 8 7 6 4 3 2 2 2 1 1 2 2 3 3 3 3 3 3 3 3 3 3 3 3 3 3 2
7 5 6 7 8 9 9 9 12 11 10 11 12 12 8 9 9 8 7 7 5 3 2 2 1 1 1 2 2 2 2 2 2 2 2 2 2 2 2 2 2 2 2 1
7 7 6 5 7 7 11 10 12 11 11 10 11 8 6 8 7 4 7 6 4 3 2 1 1 1 1 1 1 2 2 2 2 1 1 1 1 1 1 1 1 1 0 -0
5 5 6 6 7 6 7 9 11 8 9 9 12 9 6 8 9 9 6 5 3 2 1 1 1 0 0 0 1 1 1 1 1 1 1 1 1 0 0 -0 -0 -0 -0 -1
6 6 6 6 7 6 6 6 7 5 6 8 10 8 6 7 7 5 4 2 1 0 -1 -0 -1 -1 -1 -0 -0 0 -0 -0 -0 -0 -0 -0 -0 -0 -1 -1 -1 -1 -1 -2
6 7 6 7 6 2 1 2 3 4 5 6 7 6 6 4 3 2 0 -0 -1 -1 -2 -1 -1 -2 -2 -2 -1 -1 -1 -1 -1 -0 -0 -0 -1 -1 -1 -2 -2 -2 -2 -3
1 -1 3 4 0 -0 0 1 2 3 4 5 5 4 5 1 0 -1 -2 -3 -3 -3 -3 -3 -2 -2 -2 -2 -2 -2 -2 -2 -2 -1 -1 -2 -2 -3 -3 -3 -3 -3 -3 -4
-4 -3 0 -2 -2 -1 -1 0 1 1 2 2 2 2 1 1 -2 -3 -4 -5 -4 -3 -3 -3 -2 -2 -2 -3 -3 -3 -3 -2 -2 -3 -3 -3 -3 -4 -4 -4 -4 -4 -5 -5
-7 -7 -4 -1 -4 -2 -2 -1 -1 -0 -0 -0 -0 -1 -2 -2 -4 -5 -5 -5 -4 -4 -4 -3 -3 -2 -3 -3 -3 -3 -3 -3 -3 -3 -4 -4 -4 -4 -4 -4 -4 -5 -6 -6

GFSCGP_850_temp_303.txt.gz
Temp
12 10 11 11 12 14 14 14 14 14 15 14 13 14 13 16 17 16 17 18 18 17 16 16 15 15 15 15 14 14 14 13 12 12 12 11 12 11 11 11 11 10 11 11
10 10 11 13 13 14 14 14 14 15 15 15 13 13 13 13 15 16 17 17 17 17 16 16 15 15 15 14 14 14 14 13 13 12 12 11 11 11 10 10 10 10 11 11
9 11 13 13 13 14 13 14 14 15 15 15 13 14 14 14 16 16 17 18 17 17 16 16 16 15 15 14 14 14 14 13 13 12 12 11 11 11 10 10 10 10 10 11
11 12 13 13 13 14 14 14 15 13 12 11 13 11 12 12 13 12 14 16 16 16 15 16 15 15 15 14 14 13 13 13 13 12 11 11 11 11 11 11 11 11 11 10
10 11 12 13 14 14 13 15 13 13 12 12 13 10 12 13 12 11 11 14 14 14 15 15 15 15 14 14 14 13 13 13 13 12 12 11 11 12 11 10 11 11 11 11
12 14 12 13 14 14 15 14 13 11 10 9 12 13 12 12 13 13 12 12 13 13 12 12 13 13 14 14 13 13 13 13 12 12 12 11 11 11 11 11 10 10 11 11
11 12 12 14 13 14 14 13 8 9 8 10 11 12 13 14 15 14 11 12 12 12 11 11 11 11 12 12 13 12 13 13 12 12 12 11 11 11 12 11 11 11 11 11
8 8 11 12 14 13 14 14 8 8 9 11 12 11 14 11 11 14 13 12 10 10 10 10 9 10 10 11 11 11 12 12 12 12 12 11 11 11 11 11 11 11 11 10
10 10 11 12 14 14 12 13 12 11 11 9 11 12 11 10 8 8 7 9 9 9 9 8 8 8 8 9 10 10 11 11 11 11 11 11 11 11 10 10 10 10 10 9
11 10 11 11 13 13 13 14 13 9 10 11 10 11 13 9 8 7 6 6 8 8 7 6 6 6 6 6 6 8 9 10 11 11 10 10 11 10 10 10 10 9 9 8
11 10 9 11 11 12 11 13 12 11 8 12 10 10 11 11 10 8 7 7 6 6 6 6 6 6 6 6 6 7 8 9 10 10 10 10 10 10 10 9 7 8 7 8
12 9 7 10 10 12 11 13 12 13 11 9 9 12 8 10 10 10 6 5 6 6 6 5 5 5 6 6 7 7 7 8 8 9 9 9 9 9 8 7 7 7 7 8
11 10 7 9 10 10 12 11 15 12 12 11 11 12 8 8 7 8 6 5 5 6 5 4 4 5 6 6 6 7 7 7 8 8 8 8 7 7 6 6 7 7 7 7
13 10 9 10 11 9 11 12 12 12 9 12 14 14 9 7 6 6 6 5 5 5 4 4 4 4 5 6 5 5 6 6 6 6 6 6 6 6 6 6 6 6 6 6
12 9 10 10 11 11 10 11 12 11 14 12 12 13 11 8 7 6 5 4 4 4 4 3 3 3 4 4 4 4 5 5 5 5 5 5 5 6 6 6 6 6 5 5
10 7 7 10 10 12 10 11 11 12 12 14 12 12 12 9 7 6 5 4 4 3 3 3 3 3 2 3 3 3 4 4 4 5 5 5 5 5 5 5 5 5 5 4
5 6 5 8 8 8 6 10 11 12 13 12 11 11 6 6 7 6 5 5 4 3 3 3 3 2 2 3 3 3 3 4 3 4 4 4 4 4 4 4 4 4 4 3
5 6 4 4 4 7 11 11 12 12 13 11 12 10 8 8 8 7 7 6 5 4 4 3 2 2 2 2 2 3 3 3 3 4 4 4 4 4 3 3 3 3 3 2
8 7 5 7 5 8 9 9 11 10 10 10 10 11 8 7 8 6 6 6 6 5 4 3 2 2 2 2 2 2 2 2 3 3 3 3 3 3 2 2 2 2 2 1
6 6 6 6 6 7 10 10 11 10 11 9 11 7 5 8 6 5 7 7 5 4 3 2 2 2 2 1 1 2 2 2 2 2 2 2 2 2 2 1 1 1 1 1
5 5 6 6 6 5 6 8 10 9 11 10 10 9 7 9 12 13 8 5 5 3 2 2 2 2 1 1 1 1 1 1 1 1 1 1 1 1 1 1 0 -0 -0 -1
6 6 6 6 6 5 1 7 8 6 7 7 9 9 8 8 9 7 5 4 3 2 1 1 1 1 -0 -0 0 0 0 0 0 0 0 0 0 -0 -0 -1 -1 -1 -1 -1
5 4 5 6 6 0 1 1 2 3 4 6 7 8 9 5 3 2 1 1 1 1 0 1 1 -1 -2 -1 -1 -0 -1 -1 -0 -0 -0 -1 -0 -1 -1 -1 -1 -1 -2 -2
-1 -4 1 2 0 -1 -0 2 2 3 4 5 6 6 6 2 1 -1 -1 -2 -2 -1 -1 -1 -1 -2 -3 -3 -2 -1 -1 -1 -1 -1 -1 -1 -1 -1 -1 -2 -2 -2 -3 -3
-7 -6 -6 -2 -2 -1 -0 0 1 2 3 3 3 3 3 3 -2 -2 -3 -4 -3 -2 -2 -2 -2 -3 -3 -3 -2 -2 -2 -2 -2 -2 -2 -1 -2 -2 -3 -3 -3 -4 -4 -5
-11 -9 -7 -5 -6 -4 -2 -1 -0 1 1 1 2 -1 -2 -1 -3 -3 -4 -3 -3 -3 -3 -3 -3 -3 -3 -3 -3 -3 -4 -4 -4 -2 -2 -3 -3 -3 -4 -4 -4 -5 -5 -6

GFSCGP_850_temp_306.txt.gz
Temp
11 10 11 12 11 13 12 13 13 14 13 14 12 13 13 14 14 14 14 15 15 16 16 15 15 15 14 14 14 14 13 13 12 11 11 11 11 11 11 11 11 10 10 10
9 10 11 11 11 13 13 13 13 14 13 14 12 12 13 12 13 15 15 15 16 15 15 15 15 14 14 14 14 14 13 13 12 12 12 12 12 11 11 10 11 10 10 10
10 10 11 12 11 13 12 12 12 14 13 14 12 12 13 13 14 16 16 17 16 16 15 15 15 15 14 14 14 14 14 13 13 12 12 11 11 11 10 10 10 10 10 10
10 11 11 12 12 13 11 13 14 12 11 10 12 11 11 11 12 11 14 15 16 15 15 15 15 15 14 14 14 14 14 13 13 12 12 12 11 11 11 10 10 10 10 10
10 10 11 12 13 13 12 12 13 12 11 11 12 9 12 11 12 10 11 15 16 16 16 15 15 15 14 14 14 14 13 13 13 12 12 11 11 11 11 10 10 10 10 10
11 12 11 12 13 13 13 12 10 9 9 9 11 12 11 10 13 12 12 13 15 16 15 15 14 14 14 13 13 13 13 13 12 12 12 11 11 11 11 11 10 10 10 10
11 10 11 13 12 12 13 12 7 8 7 10 9 11 15 12 13 14 13 13 15 15 14 14 14 14 14 13 13 13 13 13 13 12 12 12 11 11 11 11 11 10 10 10
9 9 10 11 12 12 12 13 8 8 8 10 9 11 13 12 10 12 15 13 12 12 13 14 14 14 14 14 13 12 12 13 13 12 12 12 11 11 11 11 11 11 11 10
10 10 11 11 12 14 11 12 12 9 9 9 10 11 12 10 9 9 10 12 12 12 12 13 13 12 12 13 13 12 12 13 13 12 12 11 11 11 11 11 11 10 10 10
11 10 11 11 13 13 14 13 13 8 9 11 9 10 14 10 10 7 5 8 9 11 11 10 11 11 11 11 11 11 11 12 12 12 12 11 11 11 11 10 10 9 9 9
11 10 9 10 11 13 11 13 11 11 8 12 9 9 11 12 11 8 7 8 7 8 10 9 9 9 9 9 9 9 10 11 11 11 11 11 11 11 10 10 10 9 9 7
11 10 9 10 10 10 11 14 11 13 11 8 8 11 9 10 10 10 9 7 7 9 9 8 8 7 7 7 7 8 9 9 10 10 10 11 10 10 10 9 9 8 8 5
11 10 8 9 10 10 12 11 14 14 11 10 10 11 7 8 8 9 6 5 5 6 7 6 6 6 6 6 6 7 8 8 9 9 10 10 10 10 8 8 8 6 6 6
7 9 10 10 11 9 10 12 12 12 9 12 13 13 12 9 7 5 6 6 6 6 6 6 5 6 6 6 6 6 7 7 8 9 9 9 9 8 7 7 5 5 6 6
7 6 8 9 11 11 10 12 10 12 13 12 13 12 13 10 7 6 5 4 4 5 5 5 5 5 5 6 6 6 7 7 7 7 7 7 6 6 5 5 5 5 5 5
8 6 6 6 9 11 10 11 12 12 13 13 11 11 11 8 7 6 5 4 3 4 5 5 4 5 5 6 6 6 6 6 6 6 5 5 4 4 5 5 5 5 5 5
3 4 5 5 7 7 8 9 11 11 11 12 10 11 6 6 6 5 4 5 6 6 5 5 4 4 4 5 5 5 5 5 4 4 4 4 4 4 4 4 4 4 4 3
3 5 5 6 5 6 8 9 11 12 12 11 11 10 8 8 10 9 9 8 6 5 4 5 5 4 4 4 4 5 3 3 3 3 3 3 3 3 3 3 3 3 3 3
3 4 5 6 7 7 9 9 9 9 10 10 11 10 8 9 8 8 9 8 7 5 5 5 4 4 3 3 3 3 2 2 2 3 3 3 3 3 3 2 2 2 2 2
4 4 5 5 6 7 10 9 10 9 9 8 10 11 3 7 6 8 11 9 7 7 6 4 3 3 3 2 2 2 2 2 2 2 2 2 2 2 2 2 2 2 1 1
5 5 6 6 6 4 5 6 10 8 10 10 10 11 6 9 13 14 14 8 7 6 4 3 3 3 2 2 1 1 1 1 1 1 1 1 1 1 1 1 1 1 1 0
6 6 6 5 5 6 0 6 7 6 5 5 7 10 9 10 12 12 10 7 5 4 2 2 2 2 1 1 1 1 0 0 0 0 0 0 0 0 0 0 -0 -0 -1 -0
5 -0 3 4 4 -1 -0 1 1 2 3 4 5 7 8 9 9 8 6 4 3 3 1 1 2 1 0 0 0 0 -1 -1 -1 -1 -1 -1 -1 -1 -1 -1 -1 -1 -1 -1
-5 -8 -1 1 -2 -4 -2 -1 -0 1 2 4 6 5 5 6 4 3 1 0 -0 -0 0 1 1 0 -1 -1 -1 -0 -1 -2 -1 -1 -1 -1 -1 -1 -1 -1 -1 -1 -2 -2
-10 -9 -9 -3 -5 -4 -2 -3 -3 -1 1 2 3 3 3 3 -0 -1 -2 -2 -2 -1 -1 -0 0 -1 -2 -2 -2 -2 -2 -2 -2 -2 -2 -2 -2 -2 -2 -1 -2 -3 -3 -3
-12 -11 -11 -10 -9 -9 -7 -6 -5 -3 -2 -1 2 0 -1 -1 -2 -2 -4 -4 -3 -2 -2 -1 -1 -2 -3 -3 -3 -3 -3 -3 -2 -2 -3 -3 -3 -2 -2 -3 -3 -4 -4 -5